Vertical_Velocity
-2 -7 5 12 6 7 -2 2 0 3 4 4 -2 -6 1 9 3 4 2 -2 -0 -4 -0 -2 4 -1 -0 -1 2 1 0 -0 1 -1 -2 0 1 -1 -1 0 0 -1 -1 -1 0 0 -2 -1 0
-1 16 4 -3 6 2 1 -0 0 -0 1 2 -5 -0 -3 14 -1 5 -2 3 -4 2 -5 -4 0 -0 -2 -3 -2 0 -2 -0 0 0 0 -1 -1 -0 -0 1 -2 -1 -0 1 2 -1 -1 -2 -3
14 -8 -4 1 1 1 1 1 -1 4 1 -2 -1 10 2 7 7 -3 -4 -11 11 -5 8 -5 -1 -2 -1 -1 1 0 -1 3 -3 -1 -1 -2 -0 1 2 0 -1 -0 -1 2 -1 -2 -1 -0 0
-11 3 1 4 -1 -6 -0 0 -1 3 5 2 -0 -1 -6 2 -9 -12 -12 -6 2 1 3 -3 1 -2 -1 0 -2 -1 1 -2 -1 1 -3 0 2 3 -0 -3 3 -1 2 0 0 -1 -2 -1 -0
5 4 2 2 -4 0 1 -1 -0 0 1 2 4 10 0 5 12 -0 -4 4 -2 27 -10 -2 -1 -1 0 1 -1 -0 -1 -2 -0 1 -0 2 -1 0 -1 0 0 -0 0 1 -1 2 0 -1 -1
3 3 4 1 1 2 1 -4 -3 -1 -2 1 8 -4 -2 -3 -3 1 1 2 -1 1 -3 -6 -3 0 -0 1 -0 -1 0 1 1 -0 2 -0 1 1 -1 0 -0 -2 0 -1 -0 -2 -1 0 0
3 4 -1 -1 -0 1 0 7 -3 -2 -1 0 -3 -2 1 -2 -0 -1 3 -2 14 -11 0 -0 -4 -1 -1 1 1 1 3 -1 -1 -0 -0 -1 1 -1 -1 -2 -2 -3 0 1 -2 -3 -2 -3 -3
3 11 1 -2 -1 2 1 1 -5 -2 4 4 -10 -1 3 -6 -0 1 -1 3 11 10 -17 -4 -8 -2 -5 -1 2 0 3 -0 -2 -1 -1 -2 -3 -1 0 1 -4 -1 -1 1 -2 -4 -4 -3 -5
20 7 -0 -3 -0 5 3 -4 4 -3 -2 -1 -13 4 -10 -3 1 3 6 6 6 0 -4 1 -4 -5 2 -3 3 1 -2 -1 -2 1 -0 -3 -4 2 -4 -1 -2 -2 -2 -4 -5 -4 9 14 3
7 5 -3 -2 1 -2 0 -5 -4 -1 3 6 5 26 1 6 -5 -2 2 -1 6 -4 6 7 5 -8 -9 11 -4 -4 -4 -9 17 5 -6 2 13 -0 -4 -4 -3 -4 -1 -6 -4 14 10 -5 10
-5 -0 -0 -4 3 2 -1 2 -6 2 5 -6 -4 -1 1 -2 -0 -2 8 -5 -5 -9 -1 -0 13 -21 -3 4 -7 -1 -9 15 -8 -9 11 -5 -6 -6 13 -5 -7 10 -25 3 0 -9 1 -17 -1
16 -1 -0 -8 0 3 -1 14 3 8 -18 3 -8 -8 -2 1 -4 3 -0 1 2 4 -7 9 -1 -15 26 -6 -14 -7 13 4 -6 -1 -4 -12 17 0 -3 2 5 -6 11 22 -26 16 4 51 57
8 -4 -1 -2 4 5 7 -0 1 -3 28 4 -3 1 -1 2 -3 3 1 -0 1 2 -6 18 -14 28 -13 16 27 19 -1 -2 16 -14 -7 19 16 -10 -5 12 -18 -5 5 15 10 -2 13 -23 15
-3 -2 0 1 -4 -0 -0 -3 -3 -6 3 2 -2 0 0 -2 -4 2 9 -0 -0 0 -3 3 -1 -8 -2 5 6 -2 1 21 -7 2 -6 -2 -6 2 -3 -10 1 -2 -23 6 6 -6 20 25 -2
-3 6 4 -0 -1 -5 -1 11 -3 12 -2 0 2 -0 2 -2 3 -2 -2 -2 -3 -5 -3 -3 1 -4 -6 3 -15 -7 -2 5 -4 24 -9 9 -0 -1 -3 -4 -10 -1 -13 -19 -20 -5 1 7 5
12 15 8 -6 2 -15 23 -7 2 -1 -1 2 3 1 2 1 -4 -1 -1 -0 5 -3 -0 0 6 -2 -6 11 -10 6 8 4 5 -8 -6 -0 -7 -4 -4 -9 3 -6 -6 -1 35 -21 2 -5 8
7 -1 4 1 -2 -0 12 -1 -15 -2 2 3 2 0 1 3 7 -1 2 -5 1 -3 -5 5 6 -3 -5 -1 -4 0 -2 7 -12 12 -6 -4 -5 -1 -9 5 -6 -7 2 -14 20 -4 -15 -17 19
-5 4 1 -3 4 8 2 5 -3 1 1 -3 1 1 1 -2 -5 -5 3 1 1 1 -4 2 -2 0 -4 1 -1 2 -12 2 -2 5 18 -1 6 -6 20 6 -4 -14 -4 20 2 18 -23 -5 -26
4 4 -1 -2 -5 5 -4 0 -8 1 7 3 2 2 0 -1 -6 -1 1 -2 2 2 -2 -1 -3 2 -4 2 -2 0 4 4 8 10 -2 -5 6 -5 12 5 -7 -7 11 5 -0 -22 -14 18 -11
2 2 -6 -4 1 4 0 -4 -0 1 -3 -8 -4 1 -0 3 2 5 -2 1 1 -4 -0 -1 -1 1 -7 -3 -1 8 5 -5 5 -4 -12 -1 0 -3 -0 -4 -2 -16 5 -7 -7 2 20 6 2
-1 2 -2 -3 1 3 4 -5 3 5 5 5 6 -2 1 -5 -0 0 -2 1 -2 -0 -2 -3 -1 -1 -6 5 -7 -3 1 16 -14 15 -7 -3 -0 -2 16 -7 13 0 -0 -6 -8 -12 1 18 -10
6 -3 2 2 9 -3 9 -5 -1 1 3 3 1 3 -1 -1 3 -1 -3 1 -5 0 -4 5 -4 1 -4 -4 -1 -2 1 -5 -2 -2 3 5 -3 -1 -3 -2 -3 -5 2 12 -6 -7 11 -1 6
-19 3 -1 1 2 12 -8 19 -12 6 9 2 1 -3 2 -4 -5 -5 -7 -5 -1 -0 -4 2 -4 -1 2 -6 4 -6 -2 -8 -3 -0 18 17 -8 -1 8 -6 -2 -5 -4 -5 1 -2 -9 1 7
-6 9 4 3 5 14 -15 13 -12 -5 -10 1 3 3 -2 -1 -1 3 -1 4 -2 1 2 -0 -3 -2 -1 -4 -3 -1 -8 7 4 -12 12 -14 8 -10 -3 -1 -1 -1 -1 -6 -4 -5 -7 0 0
11 11 4 13 15 -17 -3 20 -24 -4 -3 -4 -6 -3 -3 -2 1 -2 -1 -3 -3 -3 -2 3 -3 -5 -1 -5 -2 -4 -5 -6 -2 4 -7 -4 -0 8 -4 -7 -0 -2 -2 1 -1 -3 6 -4 -4
-9 3 -3 -8 -1 -16 3 -6 -41 -9 1 -9 -21 -5 4 1 -4 -2 -2 -2 -3 2 -2 -2 2 -5 -1 3 -5 0 -1 -6 -8 -10 12 -10 7 -6 14 -1 -2 -5 0 -4 -0 -8 -4 -7 -6
-22 15 -24 15 -3 20 -11 1 14 5 -1 0 -3 16 -6 1 2 -6 -1 -2 2 -1 -4 -9 3 -4 -6 -2 3 -3 -1 -4 -1 1 -12 -1 -8 20 5 -3 -6 1 -1 1 6 1 -6 12 -7
20 -5 26 2 9 -1 -7 -3 -17 3 -3 -2 0 -2 4 3 -1 6 -1 -4 -3 -3 4 2 -2 -3 3 -1 -5 -2 -4 -5 -1 -5 1 -5 10 -19 35 -7 -0 -2 0 -1 -4 4 -2 -7 1
13 3 4 17 8 -1 -1 -17 -7 -7 -7 -4 -5 -5 -6 6 1 -5 -2 0 -2 4 3 -1 2 4 -6 1 2 2 -5 -5 2 1 -5 -7 -5 9 -8 4 -3 -1 -1 -1 0 -7 26 -4 -8
3 -1 -1 13 -16 -5 2 -22 -2 -2 -3 -2 -4 -4 -4 -9 17 -10 3 -3 1 -3 2 -1 4 -4 -5 3 3 -1 5 -3 -4 -4 -2 -4 -4 -5 -2 -4 -0 -3 -3 1 -3 -4 5 3 -0
Height
1514 1516 1518 1521 1524 1506 1492 1496 1485 1488 1489 1490 1493 1498 1506 1511 1513 1528 1530 1537 1540 1547 1550 1552 1554 1556 1558 1560 1562 1563 1564 1566 1567 1568 1568 1570 1570 1570 1571 1571 1571 1572 1571 1571 1571 1571 1571 1572 1572
1519 1521 1521 1521 1519 1515 1498 1490 1494 1492 1493 1495 1501 1502 1506 1515 1518 1525 1533 1540 1544 1549 1554 1556 1556 1559 1560 1562 1563 1564 1566 1567 1568 1569 1570 1571 1572 1573 1573 1573 1574 1574 1574 1574 1573 1574 1574 1574 1574
1521 1521 1522 1518 1511 1504 1504 1494 1491 1491 1496 1499 1502 1503 1510 1522 1524 1529 1534 1540 1547 1552 1556 1554 1556 1559 1561 1563 1565 1566 1567 1569 1570 1571 1572 1573 1574 1575 1575 1576 1576 1576 1576 1576 1576 1576 1576 1577 1576
1519 1522 1522 1519 1506 1494 1490 1493 1493 1495 1500 1501 1504 1515 1523 1526 1528 1532 1537 1542 1548 1554 1556 1556 1559 1560 1562 1564 1567 1568 1569 1571 1572 1573 1573 1575 1575 1577 1577 1577 1578 1578 1578 1578 1578 1579 1578 1578 1579
1520 1518 1513 1512 1500 1491 1491 1496 1499 1503 1503 1505 1506 1517 1526 1530 1532 1536 1541 1545 1550 1553 1557 1558 1561 1562 1565 1566 1568 1570 1572 1573 1574 1575 1576 1577 1578 1579 1579 1579 1580 1580 1580 1581 1581 1581 1581 1581 1581
1519 1513 1509 1497 1494 1490 1495 1499 1504 1512 1511 1511 1511 1521 1530 1533 1535 1539 1543 1548 1551 1554 1559 1560 1562 1565 1567 1568 1570 1572 1574 1575 1576 1578 1579 1580 1581 1581 1581 1582 1582 1582 1582 1583 1583 1583 1583 1583 1584
1516 1509 1498 1491 1493 1489 1492 1495 1506 1511 1514 1513 1514 1518 1529 1534 1537 1541 1546 1549 1553 1557 1561 1564 1566 1566 1569 1570 1572 1574 1576 1577 1578 1580 1581 1583 1583 1584 1584 1584 1584 1584 1585 1585 1584 1584 1585 1585 1585
1510 1498 1494 1480 1493 1498 1491 1495 1504 1508 1512 1511 1513 1517 1527 1531 1537 1542 1547 1550 1554 1558 1563 1566 1569 1571 1573 1573 1574 1576 1578 1579 1581 1583 1584 1585 1586 1587 1587 1588 1587 1587 1588 1587 1586 1585 1585 1586 1587
1508 1503 1496 1484 1487 1484 1489 1497 1506 1507 1508 1509 1511 1512 1520 1530 1537 1542 1546 1551 1555 1560 1564 1567 1571 1573 1575 1577 1576 1578 1580 1582 1584 1586 1588 1588 1590 1591 1591 1591 1590 1590 1590 1589 1587 1586 1587 1589 1588
1505 1490 1490 1483 1475 1488 1485 1492 1498 1504 1504 1505 1510 1513 1521 1530 1537 1541 1545 1549 1554 1560 1564 1567 1571 1574 1576 1579 1579 1582 1583 1586 1589 1590 1589 1590 1593 1594 1595 1593 1593 1593 1593 1592 1589 1590 1596 1590 1593
1494 1491 1480 1479 1477 1478 1484 1493 1492 1492 1492 1497 1506 1515 1523 1531 1538 1542 1545 1550 1555 1560 1564 1567 1571 1575 1576 1579 1582 1585 1586 1589 1589 1591 1589 1593 1595 1594 1596 1595 1595 1595 1594 1594 1593 1592 1596 1592 1593
1490 1483 1484 1489 1482 1484 1490 1490 1485 1487 1489 1493 1506 1516 1525 1531 1537 1541 1545 1550 1555 1560 1565 1568 1572 1575 1575 1580 1582 1585 1584 1590 1592 1593 1593 1593 1595 1597 1596 1596 1598 1595 1596 1597 1594 1595 1595 1596 1594
1487 1482 1484 1487 1486 1486 1488 1491 1491 1492 1490 1496 1508 1518 1525 1531 1536 1540 1545 1550 1555 1560 1565 1568 1573 1573 1577 1579 1583 1586 1588 1590 1592 1593 1594 1594 1595 1596 1597 1598 1596 1596 1598 1598 1598 1598 1597 1598 1599
1482 1484 1483 1487 1490 1490 1489 1490 1491 1493 1492 1501 1510 1518 1524 1530 1534 1539 1544 1549 1555 1560 1565 1568 1573 1576 1578 1580 1584 1586 1589 1590 1593 1594 1595 1595 1595 1597 1598 1598 1597 1598 1596 1598 1599 1599 1600 1601 1602
1485 1483 1480 1483 1482 1492 1489 1493 1487 1483 1491 1501 1509 1517 1523 1528 1533 1538 1544 1549 1554 1560 1565 1568 1572 1576 1579 1580 1584 1586 1588 1591 1593 1595 1594 1596 1596 1597 1598 1598 1599 1596 1599 1600 1600 1601 1601 1602 1602
1484 1481 1478 1469 1475 1480 1477 1481 1472 1483 1489 1497 1506 1514 1521 1527 1532 1538 1544 1549 1554 1559 1564 1568 1572 1575 1579 1581 1584 1587 1589 1591 1592 1594 1595 1596 1596 1596 1597 1599 1601 1600 1600 1599 1601 1602 1603 1603 1604
1477 1480 1477 1463 1463 1469 1466 1482 1491 1481 1486 1492 1501 1510 1518 1525 1531 1537 1543 1548 1553 1558 1563 1567 1571 1574 1578 1581 1584 1587 1589 1590 1592 1594 1595 1596 1596 1597 1595 1597 1599 1600 1601 1600 1603 1603 1604 1604 1605
1472 1474 1459 1464 1456 1459 1461 1477 1482 1479 1482 1488 1496 1506 1513 1521 1527 1534 1541 1546 1551 1557 1561 1566 1569 1573 1576 1580 1584 1587 1589 1591 1592 1594 1595 1595 1597 1598 1599 1598 1599 1600 1602 1601 1601 1604 1604 1604 1606
1458 1455 1461 1447 1448 1457 1462 1468 1472 1470 1475 1483 1492 1501 1508 1515 1524 1531 1538 1543 1549 1554 1559 1563 1567 1570 1574 1578 1582 1586 1588 1590 1593 1594 1595 1596 1598 1598 1598 1599 1599 1600 1602 1602 1603 1605 1605 1607 1607
1468 1467 1457 1448 1447 1456 1459 1463 1460 1464 1467 1477 1486 1495 1504 1513 1520 1527 1534 1539 1545 1550 1555 1560 1564 1567 1571 1576 1580 1585 1587 1590 1592 1594 1594 1597 1598 1598 1600 1599 1600 1599 1602 1603 1604 1604 1606 1607 1608
1471 1470 1463 1460 1453 1458 1463 1469 1457 1462 1459 1472 1481 1490 1498 1505 1512 1521 1528 1534 1540 1546 1551 1556 1560 1563 1567 1574 1578 1582 1586 1588 1591 1592 1594 1596 1598 1599 1601 1599 1601 1601 1602 1603 1604 1605 1605 1608 1609
1473 1467 1465 1462 1464 1474 1461 1482 1463 1457 1454 1462 1476 1483 1491 1499 1507 1516 1523 1529 1534 1541 1548 1552 1556 1560 1564 1569 1575 1579 1583 1585 1588 1590 1592 1594 1596 1599 1600 1599 1600 1601 1603 1603 1605 1606 1607 1607 1609
1470 1461 1464 1467 1468 1468 1459 1467 1453 1445 1467 1452 1464 1476 1484 1491 1498 1506 1514 1521 1529 1536 1542 1548 1552 1556 1561 1564 1571 1575 1580 1584 1586 1588 1589 1593 1594 1597 1599 1599 1600 1601 1602 1604 1604 1606 1607 1609 1609
1466 1467 1466 1465 1467 1480 1462 1456 1444 1448 1444 1450 1451 1464 1475 1484 1492 1499 1508 1518 1524 1531 1536 1542 1545 1549 1554 1559 1566 1571 1575 1580 1583 1586 1588 1592 1593 1595 1597 1598 1599 1600 1602 1602 1604 1605 1606 1608 1609
1466 1469 1483 1485 1479 1474 1447 1455 1441 1423 1435 1436 1436 1451 1463 1475 1484 1492 1500 1508 1515 1522 1528 1534 1538 1543 1547 1553 1559 1564 1570 1575 1579 1583 1586 1589 1591 1592 1593 1596 1597 1599 1599 1602 1603 1603 1606 1606 1609
1457 1461 1461 1478 1464 1451 1439 1444 1437 1427 1423 1436 1455 1442 1451 1462 1474 1483 1491 1499 1506 1513 1520 1526 1530 1535 1542 1547 1552 1558 1564 1571 1576 1580 1583 1586 1588 1590 1590 1592 1596 1598 1598 1600 1601 1603 1604 1605 1607
1452 1457 1447 1447 1432 1434 1421 1423 1422 1422 1426 1426 1434 1433 1455 1450 1461 1474 1484 1492 1500 1507 1511 1516 1522 1527 1534 1541 1546 1551 1558 1565 1571 1575 1578 1582 1585 1588 1589 1590 1592 1595 1597 1598 1600 1601 1602 1604 1605
1464 1447 1458 1454 1468 1458 1427 1418 1421 1423 1424 1426 1431 1435 1440 1448 1450 1464 1475 1484 1492 1498 1505 1513 1518 1520 1525 1534 1539 1545 1550 1557 1564 1569 1573 1577 1581 1583 1586 1587 1590 1591 1593 1595 1597 1599 1601 1602 1604
1459 1461 1455 1445 1441 1453 1450 1422 1397 1408 1418 1423 1427 1434 1437 1436 1442 1458 1467 1476 1484 1493 1500 1505 1511 1517 1521 1526 1532 1538 1543 1550 1556 1562 1566 1571 1575 1579 1581 1584 1585 1587 1589 1592 1593 1595 1598 1598 1601
1447 1447 1446 1454 1456 1433 1432 1426 1398 1402 1410 1421 1425 1430 1435 1440 1442 1452 1460 1469 1477 1484 1491 1496 1503 1508 1512 1518 1525 1530 1536 1543 1549 1554 1559 1564 1568 1572 1576 1578 1581 1583 1586 1588 1589 1591 1594 1596 1598